Content
SEND FEEDBACK

Daily
Averages
Monthly
Summary
United States of America

BLACK HAWK, SOUTH DAKOTA


Home > North America > United States > South Dakota
Elevation: 3352 feet     Latitude: 44 05N     Longitude: 103 16W

WEATHER
 
SELECT A DAY
Number of Records: 207,967;   Date Range: 1/1/95 - 10/29/14
 
SHARE

PRINT THIS DATA

[ ← Previous Day ]
WEATHER ALMANAC - APRIL 3, 2013
[ Next Day → ]
[ °C ]   °F
Weather ElementAverageHighLow
Temperature53.5 °F70.7 °F (3:55 pm)34.7 °F (3:55 am)
Dewpoint28 °F35.6 °F (7:55 pm)21.2 °F (1:55 am)
Humidity41.3 %65 % (6:55 am)19 % (11:55 am)
Barometer30.00 in30.15 in (10:55 pm)29.92 in (3:55 pm)
Wind Speed13.2 mph21.9 mph (7:55 pm)
Wind Gust28.8 mph (8:55 pm)
Weather ElementAverage
Visibility10 mi
Wind DirectionWSW (243.6 °)

Weather ElementTotal
Precipitation---
Heating Degree Days12.3 (Base 65)
Growing Degree Days2.7 (Base 50)
Averaged from 25 records on April 3, 2013
WEATHER CONDITIONS BREAKOUT
WIND DIRECTION BREAKOUT
WEATHER BY HOUR - APRIL 3, 2013
[ °C ]   °F
Local TimeTemperatureDewpointHumidityBarometerVisibilityWind DirectionWind SpeedGust SpeedPrecipitationEventsConditions
1:55 AM35.4 °F21.2 °F56 %30.06 in10.0 miSouth (180°)10.4 mphClear
2:55 AM35.6 °F21.9 °F58 %30.02 in10.0 miSouth (170°)11.5 mphClear
3:55 AM34.7 °F22.3 °F61 %30.01 in10.0 miSouth (170°)8.1 mphClear
4:55 AM35.1 °F23.7 °F63 %30.01 in10.0 miSW (220°)4.6 mphClear
5:55 AM38.1 °F26.2 °F62 %30.00 in10.0 miSSW (210°)3.5 mphClear
6:55 AM38.7 °F27.7 °F65 %30.01 in10.0 miSW (220°)5.8 mphClear
7:55 AM47.3 °F30.2 °F52 %30.00 in10.0 miSouth (180°)11.5 mphClear
8:55 AM54.1 °F30.4 °F40 %29.98 in10.0 miSouth (170°)13.8 mphClear
9:22 AM57.2 °F30.2 °F36 %29.96 in10.0 miSSW (200°)17.3 mphLight Drizzle
9:31 AM57.2 °F30.2 °F36 %29.96 in10.0 miSouth (190°)16.1 mphClear
9:55 AM61.5 °F27.1 °F27 %29.96 in10.0 miSouth (190°)12.7 mph0.00 inClear
10:55 AM65.7 °F24.1 °F21 %29.94 in10.0 miSSW (200°)10.4 mph20.7 mphPartly Cloudy
11:55 AM68.0 °F24.4 °F19 %29.93 in10.0 miVariable6.9 mphClear
12:55 PM69.3 °F24.8 °F19 %29.93 in10.0 miNorth (350°)13.8 mphClear
1:55 PM69.3 °F29.3 °F23 %29.94 in10.0 miNorth (10°)13.8 mphMostly Cloudy
2:55 PM68.7 °F29.7 °F23 %29.94 in10.0 miNorth (350°)18.4 mph26.5 mphMostly Cloudy
3:55 PM70.7 °F30.2 °F22 %29.92 in10.0 miNorth (350°)18.4 mph24.2 mphClear
4:55 PM67.3 °F31.1 °F26 %29.94 in10.0 miNNW (340°)18.4 mphMostly Cloudy
5:55 PM64.2 °F29.8 °F27 %29.96 in10.0 miNW (320°)18.4 mphMostly Cloudy
6:55 PM63.5 °F28.2 °F26 %29.98 in10.0 miNNW (330°)13.8 mphPartly Cloudy
7:55 PM57.6 °F35.6 °F44 %30.02 in10.0 miNorth (360°)21.9 mphPartly Cloudy
8:55 PM51.1 °F33.6 °F51 %30.09 in10.0 miNorth (360°)20.7 mph28.8 mphClear
9:55 PM45.1 °F30.4 °F56 %30.14 in10.0 miNorth (350°)15.0 mphScattered Clouds
10:55 PM41.7 °F29.3 °F61 %30.15 in10.0 miNNW (330°)12.7 mphClear
11:55 PM41.4 °F28.0 °F59 %30.15 in10.0 miNNW (340°)12.7 mphClear
Hourly data recorded from KRCA, located miles away from Black Hawk, South Dakota







STORIES FROM OUR PARTNERS